Location: Caixon
(43.4106°N, 0.0273°E)
Time: 20:46:45
(UTC+00:00)

ATLAS 5 CENTAUR R/B - Pass Details

Date: 16 October 2021
Orbit: 497 x 1159 km, 63.4° (Epoch: 25 November)

Event Time Altitude Azimuth Distance (km) Brightness Sun altitude
Exits shadow 05:36:12 - 268° (W) 2,762 4.2 -7.8°
Reaches altitude 10° 05:37:24 10° 258° (WSW) 2,722 4.2 -7.6°
Maximum altitude 05:38:00 10° 252° (WSW) 2,732 4.3 -7.5°
Drops below altitude 10° 05:38:37 10° 247° (WSW) 2,762 4.3 -7.4°
Sets 05:44:42 0° 207° (SSW) 3,879 5.4 -6.3°
